Simultaneous Nadir Overpasses (SNOs) Predictions

Prediction of SNOs between LANDSAT-8 and METOP-B Satellite Orbit:

Table of predicted SNOs for the next 14.0 days since TLE Epoch: 2/22/2020
Index Date (LANDSAT-8) Time (LANDSAT-8) Lat,Lon (LANDSAT-8) SZA (LANDSAT-8 ) Date (METOP-B) Time (METOP-B) Lat,Lon (METOP-B) SZA (METOP-B ) Distance(km) Time Diff (sec)
1 02/22/2020 19:28:22 -81.09, 107.08 87.13 02/22/2020 19:28:18 -81.09, 106.95 87.15 2.21 4
2 02/22/2020 20:17:47 81.12, -84.84 92.92 02/22/2020 20:18:56 81.12, -84.85 92.95 0.17 69
3 02/25/2020 14:13:09 81.08, 5.75 91.84 02/25/2020 14:12:00 81.08, 5.68 91.81 1.36 69
4 02/25/2020 15:02:35 -81.11, 173.71 88.13 02/25/2020 15:02:39 -81.11, 173.88 88.11 2.89 4
5 02/28/2020 09:47:24 81.07, 71.98 90.77 02/28/2020 09:46:24 81.07, 71.84 90.74 2.57 60
6 02/28/2020 10:36:50 -81.09,-120.03 89.19 02/28/2020 10:37:03 -81.10,-119.96 89.18 1.51 13
7 03/02/2020 05:21:38 81.08, 138.56 89.74 03/02/2020 05:20:46 81.09, 138.72 89.74 2.86 52
8 03/02/2020 06:11:04 -81.10, -53.44 90.22 03/02/2020 06:11:26 -81.11, -53.44 90.21 0.08 22
9 03/05/2020 00:55:51 81.09,-154.88 88.69 03/05/2020 00:55:08 81.09,-154.78 88.69 1.70 43




NCC Satellite Simultaneous Nadir Overpasses (SNOs) Prediction Service
